Regional Weather Roundup
Issued by NWS

Home | Current Version | Previous Version | Graphics & Text | Print | Product List | Glossary On
Versions: 1 2 3 4 5 6 7 8 9 10 11 12 13 14 15 16 17 18 19 20 21 22 23 24 25 26 27
000
ASUS45 KCYS 060810
RWRWY

WYOMING REGIONAL WEATHER ROUNDUP
NATIONAL WEATHER SERVICE CHEYENNE WY
200 AM MDT FRI MAY 06 2016

NOTE:  "FAIR" INDICATES FEW OR NO CLOUDS BELOW 12,000 FEET
WITH NO SIGNIFICANT WEATHER AND/OR OBSTRUCTIONS TO VISIBILITY.

WYZ001-060900-
YELLOWSTONE NATIONAL PARK

CITY           SKY/WX    TMP DP  RH WIND       PRES   REMARKS
LK YELLOWSTONE   N/A     38  30  73 W3        30.12F
W YELLOWSTONE  NOT AVBL

$$
WYZ002>013-054>058-071-098>099-060900-
NORTHERN WYOMING

CITY           SKY/WX    TMP DP  RH WIND       PRES   REMARKS
JACKSON        FAIR      50  34  53 CALM      30.02R
CODY           FAIR      63  34  34 SW16      29.94F
GREYBULL       FAIR      59  30  33 NW7       29.88S
WORLAND        FAIR      58  42  55 SW9       29.89S
SHERIDAN       FAIR      51  41  68 CALM      29.90F
BUFFALO        FAIR      61  32  33 W8        29.96F
GILLETTE       FAIR      49  41  74 CALM      29.92S
HULETT         FAIR      59  39  47 S3        29.94S
NEWCASTLE      FAIR      57  32  38 CALM      29.95S

$$
WYZ014>020-022>026-101>103-060900-
CENTRAL WYOMING

CITY           SKY/WX    TMP DP  RH WIND       PRES   REMARKS
BIG PINEY      FAIR      43  31  62 N10       30.05R
PINEDALE       FAIR      36  32  87 NW7       30.05S WCI  30
DUBOIS         FAIR      45  32  61 W8        30.07F
LANDER         FAIR      56  31  38 W12       29.96R
RIVERTON       FAIR      52  41  66 NW12      29.96F
CASPER         FAIR      46  38  73 N5        29.97F
DOUGLAS        FAIR      49  40  71 SE6       29.98S

$$
WYZ021-027>030-104>119-060900-
SOUTHERN WYOMING

CITY           SKY/WX    TMP DP  RH WIND       PRES   REMARKS
EVANSTON       FAIR      56  34  43 NE3       30.02R
KEMMERER         N/A     57  30  35 S12       30.06F
FORT BRIDGER   RAIN      57  37  47 SW7       30.06S
ROCK SPRINGS   MOCLDY    56  28  34 W12       30.02S
DIXON          FAIR      53  31  44 CALM      30.01F
RAWLINS        FAIR      47  32  56 CALM      30.04F
SARATOGA       FAIR      48  32  53 S14       30.05F
LARAMIE        FAIR      51  35  54 S14       30.08F
CHEYENNE       FAIR      56  39  53 S8        30.05F
TORRINGTON     FAIR      56  42  59 E6        29.95F
PINE BLUFFS    FAIR      50  41  71 SW9       30.03F

$$




USA.gov is the U.S. government's official web portal to all federal, state and local government web resources and services.